Starlink 3691

operational
NORAD ID: 51960 Int'l Des: 2022-025 Owner: SPXS Country: US Constellation: starlink
LEOCIRCULARSTARLINK_TYPE

Über Starlink 3691

Beschreibung wird geladen...

Live-Position

3D-Globus wird geladen...

Nächste Überflüge

Höhenverlauf

Altitude vs Time

uPlot chart will show altitude changes over time

Zweizeiliger Elementsatz

1 51960U 22025E 25306.01469100 -.00001414 00000-0 -76075-4 0 9990
2 51960 53.0549 249.0026 0001298 88.3059 271.8079 15.06390524201603
Epoch: 2. Nov. 2025 • Age: 29 hours

Aktueller Status

Höhe 551.2 km
Geschwindigkeit 7.59 km/s
Subsatellitenpunkt 45.20°N, 111.07°W
Startdatum 9. März 2022
Alter 3.6 years
Typ internet

Technische Details

Klassifizierung Payload
Masse 297.00 kg
Trockenmasse 275.00 kg
Gesamtmasse 297.00 kg
Länge 0.20 m
Durchmesser 2.80 m
Spannweite 9.00 m
Form Box + pan
Hersteller SPXS
Bus-Typ Starlink
Phasenstatus In Orbit
Besitzer/Staat SPXS/US

Große Konstellationen

Loading constellations...